Port Aransas, TX

11:29 AM CDT on June 23, 2017 (GMT -0500)
Port Aransas

Weather History for KRAS - October, 2012

Change the Weather History Date:

Sunday, October 7, 2012

  Actual Average (KNGP) Record (KNGP)
Temperature  
Mean Temperature 68 °F -  
Max Temperature 77 °F 81 °F 91 °F (2011)
Min Temperature 60 °F 67 °F 55 °F (2000)
Cooling Degree Days 4    
Growing Degree Days 18 (Base 50)    
Moisture  
Dew Point 57 °F    
Average Humidity 74    
Maximum Humidity 88    
Minimum Humidity 64    
Precipitation  
Precipitation 0.00 in - - ()
Sea Level Pressure  
Sea Level Pressure 30.09 in    
Wind  
Wind Speed 17 mph (NNE)    
Max Wind Speed 25 mph    
Max Gust Speed 32 mph    
Visibility 10 miles    
Events      
Averages and records for this station are not official NWS values.
T = Trace of Precipitation, MM = Missing Value Source: NWS Daily Summary

Daily Weather History Graph

Daily Weather History Graph

Search for Another Location

Airport or City:

Trip Planner

Search our weather history database for the weather conditions in past years. The results will help you decide how hot, cold, wet, or windy it might be!

Date:

Astronomy

Oct. 07, 2012 Rise Set
Actual Time 7:24 AM CDT 7:07 PM CDT
Civil Twilight 7:01 AM CDT 7:30 PM CDT
Nautical Twilight 6:33 AM CDT 7:57 PM CDT
Astronomical Twilight 6:06 AM CDT 8:24 PM CDT
Moon No Moon Rise 1:42 PM CDT (10/7)
Length of Visible Light 12h 29m
Length of Day
11h 42m
Waning Gibbous, 56% of the Moon is Illuminated
Oct 7
Waning Gibbous
Oct 8
Last Quarter
Oct 15
New
Oct 21
First Quarter
Oct 29
Full

Hourly Weather History & Observations

Time (CDT) Temp. Dew Point Humidity Pressure Visibility Wind Dir Wind Speed Gust Speed Precip Events Conditions
12:15 AM 77.0 °F 64.4 °F 65% 30.00 in 10.0 mi East 8.1 mph - N/A   Scattered Clouds
12:35 AM 77.0 °F 64.4 °F 65% 30.00 in 10.0 mi East 6.9 mph - N/A   Clear
12:55 AM 77.0 °F 64.4 °F 65% 30.00 in 10.0 mi NE 5.8 mph - N/A   Clear
1:15 AM 71.6 °F 66.2 °F 83% 30.01 in 10.0 mi NNE 19.6 mph 25.3 mph N/A   Clear
1:35 AM 71.6 °F 64.4 °F 78% 30.01 in 10.0 mi NNE 21.9 mph 29.9 mph N/A   Scattered Clouds
2:15 AM 69.8 °F 64.4 °F 83% 30.02 in 10.0 mi NNE 23.0 mph 27.6 mph N/A   Clear
2:35 AM 69.8 °F 64.4 °F 83% 30.02 in 10.0 mi NNE 16.1 mph 28.8 mph N/A   Scattered Clouds
2:55 AM 69.8 °F 62.6 °F 78% 30.03 in 10.0 mi NNE 19.6 mph 28.8 mph N/A   Mostly Cloudy
3:15 AM 69.8 °F 62.6 °F 78% 30.03 in 10.0 mi NNE 18.4 mph 27.6 mph N/A   Overcast
3:35 AM 68.0 °F 62.6 °F 83% 30.04 in 10.0 mi North 19.6 mph 28.8 mph N/A   Overcast
3:55 AM 68.0 °F 62.6 °F 83% 30.04 in 10.0 mi NNE 20.7 mph 28.8 mph N/A   Overcast
4:15 AM 68.0 °F 62.6 °F 83% 30.04 in 10.0 mi North 17.3 mph 31.1 mph N/A   Overcast
4:35 AM 68.0 °F 60.8 °F 78% 30.05 in 10.0 mi NNE 24.2 mph 29.9 mph N/A   Overcast
4:55 AM 66.2 °F 60.8 °F 83% 30.05 in 10.0 mi NNE 21.9 mph 32.2 mph N/A   Overcast
5:15 AM 66.2 °F 60.8 °F 83% 30.06 in 10.0 mi NNE 17.3 mph 28.8 mph N/A   Overcast
5:35 AM 64.4 °F 60.8 °F 88% 30.06 in 10.0 mi NNE 23.0 mph 29.9 mph N/A   Overcast
5:55 AM 64.4 °F 59.0 °F 83% 30.06 in 10.0 mi NNE 23.0 mph 28.8 mph N/A   Overcast
6:15 AM 64.4 °F 59.0 °F 83% 30.06 in 10.0 mi NNE 21.9 mph 28.8 mph N/A   Overcast
6:35 AM 62.6 °F 59.0 °F 88% 30.07 in 10.0 mi NNE 23.0 mph 29.9 mph N/A   Overcast
6:55 AM 62.6 °F 59.0 °F 88% 30.08 in 10.0 mi NNE 23.0 mph 28.8 mph N/A   Overcast
7:15 AM 62.6 °F 59.0 °F 88% 30.09 in 10.0 mi NNE 24.2 mph 32.2 mph N/A   Overcast
7:35 AM 62.6 °F 57.2 °F 82% 30.09 in 10.0 mi NNE 19.6 mph 26.5 mph N/A   Overcast
7:55 AM 62.6 °F 55.4 °F 77% 30.11 in 10.0 mi NNE 23.0 mph 31.1 mph N/A   Overcast
8:15 AM 62.6 °F 55.4 °F 77% 30.11 in 10.0 mi NNE 21.9 mph 28.8 mph N/A   Overcast
8:55 AM 60.8 °F 55.4 °F 82% 30.13 in 10.0 mi NNE 25.3 mph - N/A   Overcast
9:15 AM 60.8 °F 55.4 °F 82% 30.13 in 10.0 mi NNE 23.0 mph 29.9 mph N/A   Overcast
9:35 AM 60.8 °F 53.6 °F 77% 30.14 in 10.0 mi NNE 24.2 mph 31.1 mph N/A   Overcast
9:55 AM 60.8 °F 53.6 °F 77% 30.14 in 10.0 mi NNE 20.7 mph 29.9 mph N/A   Overcast
10:15 AM 60.8 °F 53.6 °F 77% 30.15 in 10.0 mi NNE 19.6 mph 29.9 mph N/A   Overcast
10:35 AM 60.8 °F 53.6 °F 77% 30.15 in 10.0 mi NNE 20.7 mph 28.8 mph N/A   Overcast
10:55 AM 60.8 °F 53.6 °F 77% 30.15 in 10.0 mi NNE 21.9 mph 31.1 mph N/A   Overcast
11:15 AM 60.8 °F 53.6 °F 77% 30.15 in 10.0 mi NNE 23.0 mph 27.6 mph N/A   Overcast
11:35 AM 60.8 °F 53.6 °F 77% 30.15 in 10.0 mi NNE 23.0 mph 27.6 mph N/A   Overcast
11:55 AM 60.8 °F 53.6 °F 77% 30.15 in 10.0 mi NNE 21.9 mph 27.6 mph N/A   Overcast
12:15 PM 60.8 °F 53.6 °F 77% 30.15 in 10.0 mi NNE 20.7 mph 28.8 mph N/A   Overcast
12:35 PM 62.6 °F 53.6 °F 72% 30.14 in 10.0 mi NNE 19.6 mph 25.3 mph N/A   Overcast
12:55 PM 62.6 °F 53.6 °F 72% 30.14 in 10.0 mi NNE 18.4 mph 24.2 mph N/A   Overcast
1:15 PM 64.4 °F 53.6 °F 68% 30.13 in 10.0 mi NNE 20.7 mph - N/A   Overcast
1:35 PM 64.4 °F 53.6 °F 68% 30.12 in 10.0 mi NNE 15.0 mph 23.0 mph N/A   Overcast
1:55 PM 66.2 °F 55.4 °F 68% 30.12 in 10.0 mi NNE 17.3 mph 20.7 mph N/A   Overcast
2:15 PM 66.2 °F 55.4 °F 68% 30.11 in 10.0 mi NNE 15.0 mph 20.7 mph N/A   Overcast
2:35 PM 66.2 °F 55.4 °F 68% 30.10 in 10.0 mi NNE 16.1 mph 20.7 mph N/A   Overcast
2:55 PM 66.2 °F 55.4 °F 68% 30.10 in 10.0 mi North 13.8 mph 19.6 mph N/A   Overcast
3:15 PM 66.2 °F 55.4 °F 68% 30.10 in 10.0 mi North 15.0 mph 18.4 mph N/A   Overcast
3:35 PM 66.2 °F 55.4 °F 68% 30.09 in 10.0 mi North 13.8 mph - N/A   Overcast
3:55 PM 68.0 °F 55.4 °F 64% 30.08 in 10.0 mi NNE 16.1 mph - N/A   Overcast
4:15 PM 68.0 °F 55.4 °F 64% 30.07 in 10.0 mi NNE 15.0 mph - N/A   Overcast
4:35 PM 68.0 °F 55.4 °F 64% 30.07 in 10.0 mi NNE 13.8 mph - N/A   Overcast
4:55 PM 66.2 °F 55.4 °F 68% 30.08 in 10.0 mi NNE 13.8 mph - N/A   Overcast
5:15 PM 68.0 °F 55.4 °F 64% 30.07 in 10.0 mi NNE 13.8 mph - N/A   Overcast
5:35 PM 66.2 °F 53.6 °F 64% 30.08 in 10.0 mi NNE 12.7 mph - N/A   Overcast
5:55 PM 66.2 °F 55.4 °F 68% 30.08 in 10.0 mi NNE 12.7 mph - N/A   Overcast
6:15 PM 66.2 °F 53.6 °F 64% 30.09 in 10.0 mi NNE 13.8 mph - N/A   Overcast
6:35 PM 66.2 °F 55.4 °F 68% 30.09 in 10.0 mi NNE 12.7 mph - N/A   Overcast
6:55 PM 64.4 °F 55.4 °F 73% 30.09 in 10.0 mi NNE 12.7 mph 16.1 mph N/A   Overcast
7:15 PM 64.4 °F 53.6 °F 68% 30.09 in 10.0 mi NNE 13.8 mph 19.6 mph N/A   Overcast
7:55 PM 64.4 °F 53.6 °F 68% 30.10 in 10.0 mi NE 12.7 mph 19.6 mph N/A   Overcast
8:15 PM 64.4 °F 53.6 °F 68% 30.11 in 10.0 mi NNE 12.7 mph - N/A   Overcast
8:35 PM 64.4 °F 55.4 °F 73% 30.12 in 10.0 mi NNE 16.1 mph 19.6 mph N/A   Overcast
8:55 PM 64.4 °F 53.6 °F 68% 30.13 in 10.0 mi NNE 16.1 mph - N/A   Overcast
9:15 PM 64.4 °F 53.6 °F 68% 30.13 in 10.0 mi NNE 13.8 mph 18.4 mph N/A   Overcast
9:35 PM 64.4 °F 53.6 °F 68% 30.13 in 10.0 mi NNE 15.0 mph - N/A   Overcast
9:55 PM 64.4 °F 53.6 °F 68% 30.14 in 10.0 mi NNE 15.0 mph - N/A   Overcast
10:15 PM 64.4 °F 53.6 °F 68% 30.15 in 10.0 mi North 11.5 mph - N/A   Overcast
10:35 PM 62.6 °F 53.6 °F 72% 30.15 in 10.0 mi North 13.8 mph - N/A   Overcast
10:55 PM 64.4 °F 53.6 °F 68% 30.15 in 10.0 mi North 15.0 mph - N/A   Overcast
11:15 PM 62.6 °F 53.6 °F 72% 30.15 in 10.0 mi North 15.0 mph - N/A   Overcast
11:35 PM 62.6 °F 53.6 °F 72% 30.15 in 10.0 mi North 13.8 mph 20.7 mph N/A   Overcast
11:55 PM 62.6 °F 53.6 °F 72% 30.15 in 10.0 mi North 16.1 mph - N/A   Overcast